Location: Central Coast
(33.3208°S, 151.2336°E)
Time: 06:12:34
(UTC+10:00)

Vanguard 1 Rocket - All Passes

Search period start: 17 August 2018 00:00
Search period end: 27 August 2018 00:00
Orbit: 650 x 4226 km, 34.3° (Epoch: 16 August)

Date Brightness Start Highest point End Pass type
(mag) Time Alt. Az. Time Alt. Az. Time Alt. Az.
17 Aug - 10:37:00 10° NNW 10:48:35 29° NNE 10:55:32 10° E daylight
17 Aug - 13:05:25 10° WNW 13:15:08 66° NNE 13:20:33 10° E daylight
17 Aug - 15:34:25 10° W 15:40:21 79° S 15:44:47 10° E daylight
17 Aug - 18:00:44 10° W 18:05:01 48° NNW 18:09:53 10° NE visible
17 Aug - 20:28:04 10° NW 20:30:05 12° NNW 20:32:22 10° N visible
18 Aug - 09:24:56 10° NNW 09:36:06 21° NNE 09:43:34 10° ENE daylight
18 Aug - 11:51:50 10° NW 12:03:44 50° NNE 12:10:07 10° E daylight
18 Aug - 14:21:42 10° W 14:29:27 86° S 14:34:15 10° E daylight
18 Aug - 16:49:29 10° W 16:54:24 76° NNW 16:58:53 10° ENE daylight
18 Aug - 19:15:37 10° WNW 19:18:57 20° NNW 19:23:01 10° NNE visible
19 Aug - 08:14:50 10° N 08:23:04 14° NNE 08:29:30 10° ENE daylight
19 Aug - 10:38:15 10° NW 10:51:50 39° NNE 10:59:21 10° E daylight
19 Aug - 13:08:11 10° WNW 13:18:21 79° NNE 13:23:53 10° E daylight
19 Aug - 15:37:36 10° W 15:43:40 84° S 15:48:06 10° E daylight
19 Aug - 18:04:10 10° W 18:08:12 33° NNW 18:12:37 10° NE visible
20 Aug - 09:25:10 10° NNW 09:39:23 29° NNE 09:47:59 10° E daylight
20 Aug - 11:54:08 10° WNW 12:06:56 63° NNE 12:13:32 10° E daylight
20 Aug - 14:24:49 10° W 14:32:44 82° S 14:37:35 10° E daylight
20 Aug - 16:52:43 10° W 16:57:38 59° NNW 17:02:00 10° ENE daylight
20 Aug - 19:20:20 10° NW 19:22:09 12° NNW 19:24:06 10° N visible
21 Aug - 08:13:14 10° N 08:26:22 21° NNE 08:35:24 10° ENE daylight
21 Aug - 10:39:55 10° NW 10:55:02 49° NNE 11:02:56 10° E daylight
21 Aug - 13:11:05 10° WNW 13:21:34 89° N 13:27:13 10° E daylight
21 Aug - 15:40:46 10° W 15:46:57 87° N 15:51:24 10° ENE daylight
21 Aug - 18:07:48 10° W 18:11:20 22° NNW 18:15:03 10° NNE visible
22 Aug - 07:04:06 10° N 07:12:47 14° NE 07:19:54 10° ENE daylight
22 Aug - 09:26:02 10° NNW 09:42:34 38° NNE 09:51:54 10° E daylight
22 Aug - 11:56:39 10° WNW 12:10:05 75° NNE 12:16:52 10° E daylight
22 Aug - 14:27:55 10° W 14:36:02 82° S 14:40:55 10° E daylight
22 Aug - 16:56:00 10° W 17:00:47 42° NNW 17:04:59 10° NE daylight
23 Aug - 08:13:02 10° NNW 08:29:31 29° NNE 08:39:59 10° E daylight
23 Aug - 10:41:53 10° NW 10:58:10 60° NNE 11:06:23 10° E daylight
23 Aug - 13:14:04 10° W 13:24:49 85° S 13:30:33 10° E daylight
23 Aug - 15:43:54 10° W 15:50:12 72° NNW 15:54:39 10° ENE daylight
23 Aug - 18:11:57 10° WNW 18:14:24 14° NNW 18:16:53 10° N visible
24 Aug - 07:01:43 10° N 07:15:58 20° NE 07:26:26 10° ENE daylight
24 Aug - 09:27:21 10° NW 09:45:41 48° NNE 09:55:30 10° E daylight
24 Aug - 11:59:20 10° WNW 12:13:15 84° NNE 12:20:12 10° E daylight
24 Aug - 14:31:00 10° W 14:39:18 87° S 14:44:16 10° E daylight
24 Aug - 16:59:24 10° W 17:03:51 30° NNW 17:07:44 10° NNE daylight
25 Aug - 05:54:46 10° NNE 06:01:58 12° NE 06:08:21 10° ENE visible
25 Aug - 08:13:33 10° NNW 08:32:35 37° NNE 08:44:00 10° E daylight
25 Aug - 10:44:07 10° WNW 11:01:16 71° NNE 11:09:44 10° E daylight
25 Aug - 13:17:05 10° W 13:28:05 83° S 13:33:53 10° E daylight
25 Aug - 15:47:03 10° W 15:53:22 56° NNW 15:57:46 10° NE daylight
26 Aug - 07:01:05 10° NNW 07:19:00 27° NE 07:31:20 10° E daylight
26 Aug - 09:29:00 10° NW 09:48:42 58° NNE 09:58:57 10° E daylight
26 Aug - 12:02:08 10° W 12:16:27 89° S 12:23:31 10° E daylight
26 Aug - 14:34:04 10° W 14:42:34 83° NNW 14:47:34 10° ENE daylight
26 Aug - 17:03:03 10° W 17:06:50 20° NW 17:10:07 10° NNE daylight
